Date String (YYYY-MM-DD hh:mm:ss) UTC,Instrument flags,absolute air pressure of the measurement (hPa),sample flow rate (lpm),inlet stack bypass flow (lpm),air temperature of the measurement (°C),ambient temperature measured by the external sensor (°C),aerosol sample conditioner tube jacket temperature (°C),OPC LED temperature (°C),internal box temperature (°C),relative humidity of the measurement (%),span deviation,mass concentration of particles derived from Lorenz-Mie calculation of OPC scattering (μg/m³),mass concentration of particles derived from Lorenz-Mie calculation of OPC scattering (μg/m³),mass concentration of particles derived from Lorenz-Mie calculation of OPC scattering (μg/m³)
DateTimeUTC,F1_M11,P_M11,Q1_M11,Q2_M11,T1_M11,T2_M11,T3_M11,T4_M11,T5_M11,U1_M11,ZSPAN_M11,X0_M11,X2_M11,X1_M11
2023-07-18 01:00:00,SystemResetWarning,0830.3,4.99,000.00,028.5,026.0,000.0,036.8,030.1,15.9,0000.0,0008.48,0003.47,0002.88
2023-07-18 01:01:00,SystemResetWarning,0830.3,5.00,000.00,028.6,026.5,000.0,036.8,030.2,16.3,0000.0,0008.52,0003.50,0002.91
2023-07-18 01:02:00,SystemResetWarning,0830.4,5.00,000.00,028.6,026.9,000.0,036.9,030.3,16.6,0000.0,0008.56,0003.52,0002.94
2023-07-18 01:03:00,SystemResetWarning,0830.6,5.00,000.00,028.7,027.2,000.0,036.9,030.4,17.0,0000.0,0008.45,0003.49,0002.92
2023-07-18 01:04:00,SystemResetWarning,0830.7,5.00,000.00,028.7,027.1,000.0,036.9,030.4,16.7,0000.0,0008.22,0003.45,0002.90
2023-07-18 01:05:00,SystemResetWarning,0830.6,4.98,000.00,028.7,025.5,000.0,036.8,030.2,16.9,0000.0,0007.86,0003.41,0002.88
2023-07-18 01:06:00,SystemResetWarning,0830.6,5.01,000.00,028.6,024.7,000.0,036.7,030.1,17.1,0000.0,0007.93,0003.38,0002.86
2023-07-18 01:07:00,SystemResetWarning,0830.6,5.01,000.00,028.6,025.1,000.0,036.7,030.0,17.1,0000.0,0008.51,0003.33,0002.83
2023-07-18 01:08:00,SystemResetWarning,0830.7,4.99,000.00,028.5,025.5,000.0,036.8,030.0,17.6,0000.0,0008.15,0003.32,0002.82
2023-07-18 01:09:00,SystemResetWarning,0830.7,5.00,000.00,028.5,026.0,000.0,036.8,030.1,17.7,0000.0,0007.88,0003.29,0002.81
2023-07-18 01:10:00,SystemResetWarning,0830.6,5.02,000.00,028.6,026.4,000.0,036.8,030.2,17.4,0000.0,0007.72,0003.26,0002.78
2023-07-18 01:11:00,SystemResetWarning,0830.6,5.00,000.00,028.6,026.8,000.0,036.8,030.3,16.7,0000.0,0007.69,0003.22,0002.76
2023-07-18 01:12:00,SystemResetWarning,0830.6,5.00,000.00,028.7,027.2,000.0,036.9,030.4,17.4,0000.0,0007.59,0003.20,0002.75
2023-07-18 01:13:00,SystemResetWarning,0830.6,5.00,000.00,028.7,027.5,000.0,036.9,030.5,17.2,0000.0,0007.84,0003.15,0002.71
2023-07-18 01:14:00,SystemResetWarning,0830.5,4.98,000.00,028.8,026.7,000.0,036.9,030.4,17.2,0000.0,0007.58,0003.14,0002.69
2023-07-18 01:15:00,SystemResetWarning,0830.5,5.01,000.00,028.7,025.0,000.0,036.8,030.2,17.1,0000.0,0007.53,0003.16,0002.70
2023-07-18 01:16:00,SystemResetWarning,0830.6,5.01,000.00,028.6,024.9,000.0,036.7,030.1,16.6,0000.0,0007.32,0003.15,0002.69
2023-07-18 01:17:00,SystemResetWarning,0830.6,5.00,000.00,028.6,025.3,000.0,036.8,030.0,16.7,0000.0,0007.17,0003.14,0002.69
2023-07-18 01:18:00,SystemResetWarning,0830.7,5.00,000.00,028.6,025.7,000.0,036.8,030.0,16.4,0000.0,0005.63,0003.14,0002.70
2023-07-18 01:19:00,SystemResetWarning,0830.7,5.01,000.00,028.6,026.2,000.0,036.9,030.1,16.7,0000.0,0005.56,0003.14,0002.69
2023-07-18 01:20:00,SystemResetWarning,0830.8,5.00,000.00,028.6,026.6,000.0,036.9,030.3,16.3,0000.0,0006.63,0003.16,0002.68
2023-07-18 01:21:00,SystemResetWarning,0830.8,5.00,000.00,028.7,027.0,000.0,036.9,030.3,16.3,0000.0,0007.00,0003.18,0002.69
2023-07-18 01:22:00,SystemResetWarning,0830.7,5.01,000.00,028.7,027.3,000.0,036.9,030.4,15.5,0000.0,0007.08,0003.19,0002.69
2023-07-18 01:23:00,SystemResetWarning,0830.8,4.99,000.00,028.8,027.4,000.0,037.0,030.5,15.5,0000.0,0007.58,0003.18,0002.69
2023-07-18 01:24:00,SystemResetWarning,0830.7,4.98,000.00,028.8,026.0,000.0,036.9,030.4,15.8,0000.0,0007.38,0003.20,0002.69
2023-07-18 01:25:00,SystemResetWarning,0830.7,5.00,000.00,028.7,024.9,000.0,036.8,030.1,15.8,0000.0,0007.06,0003.21,0002.70
2023-07-18 01:26:00,SystemResetWarning,0830.7,5.01,000.00,028.6,025.1,000.0,036.8,030.0,15.5,0000.0,0007.27,0003.20,0002.69
2023-07-18 01:27:00,SystemResetWarning,0830.7,5.01,000.00,028.6,025.4,000.0,036.8,030.0,15.6,0000.0,0007.92,0003.19,0002.70
2023-07-18 01:28:00,SystemResetWarning,0830.7,4.99,000.00,028.6,025.9,000.0,036.9,030.0,15.8,0000.0,0008.07,0003.21,0002.71
2023-07-18 01:29:00,SystemResetWarning,0830.7,5.00,000.00,028.6,026.3,000.0,036.9,030.2,15.2,0000.0,0008.41,0003.22,0002.71
2023-07-18 01:30:00,SystemResetWarning,0830.7,5.00,000.00,028.6,026.8,000.0,036.9,030.3,15.7,0000.0,0008.56,0003.24,0002.72
2023-07-18 01:31:00,SystemResetWarning,0830.8,5.00,000.00,028.7,027.1,000.0,036.9,030.4,16.5,0000.0,0008.38,0003.24,0002.73
2023-07-18 01:32:00,SystemResetWarning,0830.7,4.99,000.00,028.7,027.4,000.0,037.0,030.5,16.9,0000.0,0008.81,0003.24,0002.73
2023-07-18 01:33:00,SystemResetWarning,0830.7,4.99,000.00,028.8,027.0,000.0,036.9,030.5,18.4,0000.0,0008.63,0003.20,0002.72
2023-07-18 01:34:00,SystemResetWarning,0830.7,5.00,000.00,028.7,025.2,000.0,036.8,030.2,18.9,0000.0,0008.13,0003.21,0002.72
2023-07-18 01:35:00,SystemResetWarning,0830.7,5.01,000.00,028.7,024.7,000.0,036.8,030.1,20.8,0000.0,0008.23,0003.20,0002.72
2023-07-18 01:36:00,SystemResetWarning,0830.7,5.01,000.00,028.6,025.1,000.0,036.8,030.0,21.5,0000.0,0008.85,0003.22,0002.73
2023-07-18 01:37:00,SystemResetWarning,0830.8,5.00,000.00,028.6,025.5,000.0,036.8,030.0,20.7,0000.0,0008.74,0003.21,0002.73
2023-07-18 01:38:00,SystemResetWarning,0830.9,5.00,000.00,028.6,026.0,000.0,036.9,030.1,20.3,0000.0,0008.27,0003.22,0002.73
2023-07-18 01:39:00,SystemResetWarning,0830.9,5.00,000.00,028.6,026.4,000.0,036.9,030.2,20.1,0000.0,0008.18,0003.22,0002.73
2023-07-18 01:40:00,SystemResetWarning,0830.9,5.00,000.00,028.6,026.8,000.0,036.9,030.3,20.2,0000.0,0008.17,0003.22,0002.72
2023-07-18 01:41:00,SystemResetWarning,0830.9,5.01,000.00,028.7,027.2,000.0,036.9,030.4,20.5,0000.0,0008.19,0003.22,0002.72
2023-07-18 01:42:00,SystemResetWarning,0830.9,4.99,000.00,028.7,027.4,000.0,037.0,030.5,20.2,0000.0,0008.42,0003.25,0002.72
2023-07-18 01:43:00,SystemResetWarning,0830.9,4.98,000.00,028.8,026.2,000.0,036.9,030.4,20.0,0000.0,0008.57,0003.29,0002.72
2023-07-18 01:44:00,SystemResetWarning,0830.8,5.00,000.00,028.7,024.7,000.0,036.8,030.1,20.3,0000.0,0009.68,0003.38,0002.73
2023-07-18 01:45:00,SystemResetWarning,0830.8,5.00,000.00,028.6,024.8,000.0,036.7,030.0,20.6,0000.0,0010.53,0003.40,0002.72
2023-07-18 01:46:00,SystemResetWarning,0830.8,5.01,000.00,028.6,025.2,000.0,036.8,029.9,20.5,0000.0,0011.29,0003.45,0002.72
2023-07-18 01:47:00,SystemResetWarning,0830.8,4.99,000.00,028.5,025.6,000.0,036.8,030.0,20.4,0000.0,0011.65,0003.49,0002.71
2023-07-18 01:48:00,SystemResetWarning,0830.8,5.00,000.00,028.6,026.1,000.0,036.9,030.1,18.6,0000.0,0013.16,0003.54,0002.71
2023-07-18 01:49:00,SystemResetWarning,0830.8,5.01,000.00,028.6,026.5,000.0,036.9,030.2,18.2,0000.0,0013.43,0003.59,0002.70
2023-07-18 01:50:00,SystemResetWarning,0830.9,5.00,000.00,028.6,026.9,000.0,036.9,030.3,18.3,0000.0,0013.67,0003.63,0002.72
2023-07-18 01:51:00,SystemResetWarning,0830.9,4.99,000.00,028.7,027.2,000.0,036.9,030.4,18.7,0000.0,0013.63,0003.67,0002.74
2023-07-18 01:52:00,SystemResetWarning,0830.9,5.00,000.00,028.7,027.5,000.0,037.0,030.5,18.8,0000.0,0014.89,0003.73,0002.75
2023-07-18 01:53:00,SystemResetWarning,0830.9,4.98,000.00,028.8,026.5,000.0,036.9,030.4,18.5,0000.0,0016.46,0003.74,0002.75
2023-07-18 01:54:00,SystemResetWarning,0830.9,5.01,000.00,028.7,024.9,000.0,036.8,030.1,18.9,0000.0,0016.48,0003.73,0002.76
2023-07-18 01:55:00,SystemResetWarning,0830.9,5.02,000.00,028.6,024.8,000.0,036.7,030.0,18.9,0000.0,0017.63,0003.83,0002.79
2023-07-18 01:56:00,SystemResetWarning,0830.9,4.99,000.00,028.6,025.2,000.0,036.8,029.9,18.7,0000.0,0019.51,0003.87,0002.81
2023-07-18 01:57:00,SystemResetWarning,0831.0,5.00,000.00,028.5,025.6,000.0,036.8,030.0,18.6,0000.0,0019.84,0003.90,0002.83
2023-07-18 01:58:00,SystemResetWarning,0830.9,5.01,000.00,028.5,026.1,000.0,036.9,030.1,18.6,0000.0,0019.69,0003.90,0002.84
2023-07-18 01:59:00,SystemResetWarning,0830.9,5.00,000.00,028.6,026.5,000.0,036.9,030.2,18.9,0000.0,0018.21,0003.88,0002.86
